Other Surface Observations
Issued by NWS Tucson, AZ

Home | Current Version | Previous Version | Text Only | Print | Product List | Glossary On
Versions: 1 2 3 4 5 6 7 8 9 10 11 12 13 14 15 16 17 18 19 20 21 22 23 24 25 26 27 28 29 30 31 32 33 34 35 36 37 38 39 40 41 42 43 44 45 46 47 48 49 50
000
SXUS55 KTWC 020415
OSOTWC

WEATHER ROUNDUP FOR SOUTHEAST ARIZONA
NATIONAL WEATHER SERVICE TUCSON AZ
915 PM MST WED APR 01 2015

AZZ504>506-514-020515-
LOCATION       SKY/WX    TMP DP  RH WIND       PRES   REMARKS
TUCSON         CLEAR     74  19  12 W7        29.92R
DAVIS-MONTHAN  CLEAR     72  22  15 NW6       29.91R
CHILDRENS PARK N/A       77  18  11 NW4               PIMA CO DEQ
ALVERNON/22ND  N/A      N/A N/A N/A N/A               PIMA CO DEQ
CHERRY/GLENN   N/A      N/A N/A N/A N/A               PIMA CO DEQ
TANGERINE      N/A       75 N/A N/A W4                PIMA CO DEQ
CONTL RANCH    N/A       80  21  11 W6                PIMA CO DEQ
GRANT/1ST      N/A       78  17  10 E7                PIMA CO DEQ
CRAYCROFT/22ND N/A      N/A N/A N/A N/A               PIMA CO DEQ
GOLFLINKS/KOLB N/A      N/A N/A N/A N/A               PIMA CO DEQ
AJO/12TH       N/A       78  17  10 SW7               PIMA CO DEQ
SAGUARO EAST   N/A      N/A N/A N/A N/A               PIMA CO DEQ
FAIRGROUNDS    N/A       72 N/A N/A W6                PIMA CO DEQ
SAGUARO        N/A       75  15  10 NW7G13            *SABINO CYN
SAN CARLOS     N/A       72  30  21 NW3               *SAN CARLOS
GREEN VALLEY   N/A       75  15  10 W7                PIMA CO DEQ
HORSE CAMP CYN N/A       69  24  18 W11G24            *ARAVAIPA CYN
RINCON MTNS    N/A       48  13  24 W5G14             *NR MANNING CAMP
$$

AZZ509>511-020515-
LOCATION       SKY/WX    TMP DP  RH WIND       PRES   REMARKS
SAFFORD        CLEAR     66  23  19 NW10      29.88R
STRAY HORSE    N/A       51  17  26 W12G26            *
TRAIL CABIN    N/A       58  20  23 W4G10             *N OF GRANVILLE
BLACK HILLS    N/A       68  27  21 NW3               *N OF FT THOMAS
DRY LAKE       N/A       51  20  29 W5G13             *NATANES MTNS
NOON CREEK     N/A       62  19  19 SW6G14            *PINALENO MTNS
COLUMBINE      N/A       43   0  16 S8G19             *PINALENO MTNS
GUTHRIE        N/A       61  18  19 W18G30            *SW OF GUTHRIE
$$

AZZ502-503-513-020515-
LOCATION       SKY/WX    TMP DP  RH WIND       PRES   REMARKS
NOGALES        CLEAR     60  30  32 CALM      29.98R
SELLS          N/A       70  17  13 SW5               *
SASABE         N/A       61  18  19 SW7G10            *ALTAR VLY
HOPKINS        N/A       52  15  23 W11G16            *SANTA RITA MTNS
CARR CYN       N/A       59  28  31 W3                *W OF HEREFORD
$$

AZZ507-508-512-020515-
LOCATION       SKY/WX    TMP DP  RH WIND       PRES   REMARKS
SIERRA VISTA   CLEAR     66  28  23 W10       30.01R
DOUGLAS        CLEAR     64  36  35 SW12      29.98R
EMPIRE MTNS    N/A       59  20  22 W7                *LAS CIENEGAS NCA
MULESHOE RANCH N/A       68  14  12 W3G15             *PRESERVE
HEADQUARTERS   N/A       57  28  33 E2                *CHIRICAHUA MTNS
$$

.............................NOTES.............................
THIS IS AN AUTOMATED COLLECTIVE WITH MINIMAL QUALITY CONTROL.
PIMA CO DEQ SITES HAVE NONSTANDARD WIND SENSOR HEIGHTS.
PIMA CO DEQ SITES DO NOT REPORT WIND GUSTS.
* INDICATES WIND SENSORS LOCATED AT 20 FEET INSTEAD OF 33 FEET.
..............................KEY..............................
SKY/WX - SKY CONDITION/WEATHER
TMP    - TEMPERATURE IN FAHRENHEIT
DP     - DEWPOINT IN FAHRENHEIT
RH     - RELATIVE HUMIDITY IN PERCENT
WIND   - DIRECTION AND SPEED IN MILES PER HOUR (MPH)
VRB    - VARIABLE WIND DIRECTION
PRES   - MEAN SEA LEVEL PRESSURE IN INCHES OF MERCURY
         F - FALLING PRESSURE   R - RISING PRESSURE
         S - STEADY PRESSURE
VSB    - VISIBILITY IN MILES
HX     - HEAT INDEX IN FAHRENHEIT
WCI    - WIND CHILL INDEX IN FAHRENHEIT
N/A    - NOT AVAILABLE
AFB    - AIR FORCE BASE
         DAVIS-MONTHAN IS DAVIS-MONTHAN AIR FORCE BASE
CYN    - CANYON
MTNS   - MOUNTAINS
NCA    - NATIONAL CONSERVATION AREA
NR     - NEAR
VLY    - VALLEY
CONTL  - CONTINENTAL
PIMA CO DEQ - PIMA COUNTY DEPT OF ENVIRONMENTAL QUALITY



USA.gov is the U.S. government's official web portal to all federal, state and local government web resources and services.